カタログに戻る

COSMOS 839 DEB

運用中UNKNOWN
NORAD 13515·DEBRIS·🇷🇺 Russia

打ち上げ Jul 8, 1976 から Plesetsk Cosmodrome

Loading…

次のパス (今後24時間)

TLE

最新Source: Space-Track

元期: Sep 13, 2026, 22:19 UTC

1 13515U 76067BC  26256.92994822  .00000298  00000-0  12267-2 0  9996
2 13515  65.8989 204.0363 0646350  85.7121 339.4572 12.42475649 91263

AllMySatでCOSMOS 839 DEBをリアルタイム追跡

Download on the App Store